Location: *
(45.5500°S, 157.1333°W)
Time: 15:14:24
(UTC+00:00)

Daily predictions for brighter satellites

Satellite Brightness Start Highest point End
(mag) Time Altitude Azimuth Time Altitude Azimuth Time Altitude Azimuth
CZ-4C R/B 4.5 13:34:50 27° SE 13:34:50 27° SE 13:37:43 10° SE
CENTAUR R/B 4.1 14:10:15 31° NNE 14:12:33 37° ENE 14:19:02 10° SE
Cosmos 2237 Rocket 3.3 14:40:09 39° SE 14:40:18 39° SE 14:45:39 10° NE
SL-16 R/B 4.0 14:42:46 10° SSE 14:45:22 26° S 14:45:22 26° S
Cosmos 2297 Rocket 3.0 14:55:11 39° NNE 14:56:39 48° ENE 15:02:07 10° SE
SL-16 R/B 4.4 14:54:16 14° S 14:57:26 20° SE 15:01:37 10° E
Cosmos 1980 4.2 14:59:30 56° SE 14:59:51 57° ESE 15:05:25 10° NE
COSMOS 2428 4.3 15:07:53 24° N 15:07:53 24° N 15:10:03 10° N
CZ-3 R/B 4.2 14:58:44 32° NW 15:04:49 38° NNW 15:13:52 10° NE
Meteor 1-13 Rocket 4.3 15:07:15 83° ESE 15:07:15 83° ESE 15:13:13 10° SSE
Cosmos 1818 4.2 15:07:27 49° SSE 15:07:53 50° SE 15:13:07 10° ENE
Meteor 1-22 Rocket 4.1 15:15:13 79° E 15:15:13 79° E 15:20:33 10° NNE
CZ-4C R/B 3.4 15:19:56 41° SSW 15:19:56 41° SSW 15:25:54 10° SSE
Cosmos 1733 Rocket 4.5 15:17:05 21° SSE 15:19:30 36° ESE 15:23:34 10° NE
DMSP B5D2-2 4.0 15:14:08 10° SSE 15:19:32 87° ENE 15:19:42 84° NNE
Spot 4 Rocket 4.3 15:14:47 10° NNE 15:19:54 66° ESE 15:21:58 36° S
Cosmos 304 Rocket 4.1 15:24:38 34° N 15:26:32 62° ENE 15:31:20 10° SSE
NOSS 0 Rocket 3.9 15:28:54 61° WNW 15:28:54 61° WNW 15:34:44 10° N
Cosmos 836 Rocket 4.4 15:28:57 78° SSW 15:29:19 88° WNW 15:34:33 10° NNE
ISS -1.4 15:29:09 20° NE 15:29:26 20° NE 15:32:04 10° E
USA 215 4.2 15:32:36 10° ESE 15:38:20 33° S 15:40:05 29° SSW
Meteor 2-12 Rocket 4.4 15:39:19 50° WNW 15:40:24 56° WSW 15:46:32 10° S
Cosmos 1417 Rocket 4.5 15:36:24 10° S 15:42:53 89° E 15:49:14 10° N
In-Cosmos 22 4.3 15:44:11 53° WSW 15:44:11 53° WSW 15:49:54 10° S
SJ-7 4.4 15:43:52 10° NNE 15:47:48 77° ESE 15:48:45 50° S
Cosmos 2266 Rocket 4.0 15:42:35 10° N 15:48:41 81° E 15:54:56 10° S
COSMOS 2455 3.8 15:50:22 30° SSW 15:50:22 30° SSW 15:55:01 10° SSE
SMAP 3.0 15:47:00 10° NNE 15:51:42 86° ESE 15:55:13 18° SSW
Cosmos 2228 Rocket 3.0 15:47:36 10° N 15:52:05 88° ENE 15:56:42 10° S
ADEOS Rocket 3.8 15:47:47 10° NE 15:53:23 50° ESE 15:59:35 10° S
Okean 3 3.9 15:51:42 10° N 15:55:46 62° E 15:59:54 10° SSE
CZ-2C R/B 4.2 15:52:44 10° NE 15:56:03 35° ESE 15:59:23 10° S
Cosmos 2208 Rocket 4.3 15:57:07 44° W 15:57:20 44° WNW 16:02:25 10° N
Meteor 1-21 4.2 15:52:13 10° N 15:57:53 86° E 16:03:41 10° SSE
Cosmos 1455 3.6 15:56:35 10° S 15:59:52 35° ESE 16:03:06 10° NE
Cosmos 1315 Rocket 2.7 15:56:48 10° N 16:00:42 82° E 16:04:43 10° SSE
Meteor 1-23 Rocket 4.2 15:57:27 10° NNW 16:02:58 58° WSW 16:08:35 10° S
CENTAUR R/B 2.9 15:57:31 21° WNW 16:03:06 63° SW 16:09:48 10° SE
Cosmos 773 Rocket 3.9 16:00:53 28° SSW 16:03:41 72° WNW 16:08:49 10° NNE
Genesis I 4.2 16:04:25 26° S 16:05:43 35° SE 16:08:54 10° ENE
NOSS 3-3 (A) 4.0 16:01:25 21° SSW 16:05:49 70° SE 16:11:19 10° NE
Cosmos 371 Rocket 3.4 16:05:46 39° WNW 16:06:57 48° WSW 16:11:41 10° SSE
Meteor 1-12 Rocket 4.4 16:02:18 12° SSW 16:07:33 54° W 16:13:19 10° N
Cosmos 1953 3.2 16:06:05 10° S 16:09:57 49° ESE 16:13:45 10° NNE
Radarsat 4.5 16:04:55 10° N 16:10:08 74° WNW 16:15:26 10° SSW
PSLV R/B 3.8 16:07:29 10° N 16:11:24 41° W 16:11:24 41° W
Cosmos 1553 Rocket 4.4 16:09:14 25° SW 16:11:49 36° W 16:17:16 10° NNW
AQUARIUS 4.0 16:07:21 10° NNE 16:11:50 82° WNW 16:16:24 10° SSW
USA 306 2.1 16:14:00 57° NW 16:14:34 86° NE 16:18:10 10° ESE
Cosmos 1758 4.5 16:16:28 25° NW 16:16:28 25° NW 16:18:34 10° NNW
IRIDIUM 104 4.5 16:11:47 10° SSW 16:16:54 50° W 16:21:58 10° NNW
Helios 1B rocket 3.4 16:13:13 10° NE 16:16:58 45° ESE 16:20:47 10° S
Cosmos 2263 Rocket 3.5 16:11:48 10° N 16:17:10 44° ENE 16:22:35 10° SE
USA 308 4.0 16:20:35 12° ESE 16:20:35 12° ESE 16:20:59 10° ESE
BlueWalker 3 4.0 16:22:31 14° NW 16:22:31 14° NW 16:23:57 10° NNW
Cosmos 1900 4.2 16:17:09 10° NW 16:22:03 85° WSW 16:27:05 10° SSE
Cosmos 1503 Rocket 4.0 16:17:26 10° NNW 16:22:42 63° WSW 16:28:05 10° SSE
Cosmos 2237 Rocket 2.8 16:22:01 26° WSW 16:24:18 36° WNW 16:29:28 10° N
Cosmos 967 Rocket 4.4 16:18:22 10° NW 16:24:35 66° SW 16:30:53 10° SSE
Cosmos 883 Rocket 4.4 16:18:30 10° SSW 16:24:45 72° W 16:30:59 10° N
Cosmos 2227 Rocket 2.1 16:19:21 10° NW 16:25:01 70° WSW 16:30:45 10° SSE
Meteor 2-10 Rocket 4.4 16:24:35 16° SW 16:28:23 32° W 16:33:29 10° NNW
CZ-4B R/B 3.9 16:25:22 10° NNE 16:29:34 88° ESE 16:33:42 10° SSW
Meteor 1-31 Rocket 2.6 16:26:17 10° NNE 16:30:03 89° WSW 16:33:50 10° SSW
SKYMED 2 4.1 16:27:05 10° SSE 16:31:29 64° E 16:35:50 10° N
SL-16 R/B 4.2 16:28:14 10° SSW 16:30:28 14° SW 16:30:28 14° SW
Cosmos 783 Rocket 4.5 16:26:59 12° SSW 16:31:45 66° WNW 16:36:55 10° N
S3M 4.3 16:28:20 10° SSW 16:34:26 46° W 16:40:30 10° NNW
Cosmos 1461 4.5 16:34:26 19° SW 16:34:28 19° SW 16:37:34 10° S
Cosmos 2297 Rocket 2.9 16:37:06 16° WNW 16:40:54 31° SW 16:45:58 10° S
NOSS 3-2 (A) 4.2 16:33:25 10° WNW 16:42:10 58° SW 16:49:43 10° SE
SL-16 R/B 2.2 16:36:31 10° SSW 16:42:16 82° WNW 16:47:57 10° NNE
IGS 5A 3.4 16:39:00 10° NNE 16:43:07 85° WNW 16:47:17 10° SSW
Okean 1-7 3.0 16:41:12 10° NNW 16:45:30 65° W 16:49:54 10° S
Cosmos 2082 4.2 16:40:38 10° NNW 16:46:20 68° ENE 16:52:04 10° SSE
Meteor 2-20 4.5 16:40:54 10° SSW 16:47:04 65° W 16:53:10 10° N
Cosmos 1862 Rocket 4.2 16:44:25 10° NW 16:48:20 32° WSW 16:52:18 10° S
Cosmos 1818 4.5 16:48:06 17° WSW 16:51:12 29° WNW 16:55:47 10° N
Cosmos 1703 Rocket 3.6 16:47:32 10° N 16:52:00 88° W 16:56:34 10° S
Cosmos 1733 Rocket 4.2 16:54:09 12° SW 16:56:59 22° W 17:00:21 10° NW
Cosmos 1655 Rocket 4.3 16:51:27 10° NNW 16:57:30 47° WSW 17:03:43 10° S
Resurs 01 Rocket 4.3 16:55:07 10° E 16:57:48 16° ESE 17:00:29 10° SSE
Cosmos 2315 Rocket 4.3 16:52:24 10° SSW 16:58:21 44° W 17:04:16 10° NNW
Okean O Rocket 4.5 16:58:07 10° E 16:59:48 12° ESE 17:01:29 10° SE
SAR-Lupe-2 3.8 16:58:36 10° NNE 17:02:12 76° ESE 17:05:52 10° S
Aureole 3 3.9 17:02:01 10° NW 17:04:28 21° WSW 17:06:53 10° SSW
Cosmos 292 Rocket 4.0 16:59:57 10° NNW 17:04:41 77° ENE 17:09:29 10° SSE
ISS -3.7 17:02:27 10° WNW 17:05:53 72° SSW 17:09:22 10° ESE
USA 276 2.8 17:04:44 15° SW 17:06:06 25° S 17:08:06 10° ESE
BREEZE-M DEB (TANK) 1.7 17:05:13 12° W 17:08:07 45° SSW 17:10:22 10° ESE
Cosmos 990 Rocket 4.0 17:02:59 10° NNW 17:08:14 73° WSW 17:13:33 10° SSE
NOSS 3-3 (C) 4.1 17:02:29 10° SW 17:08:32 50° WNW 17:13:40 10° NNE
CZ-4C R/B 4.1 17:05:02 11° WSW 17:09:41 18° SSW 17:13:59 10° SSE
Cosmos 332 Rocket 4.4 17:08:20 10° NW 17:12:43 34° WSW 17:17:11 10° S
YAOGAN 1 2.6 17:09:58 10° NNE 17:14:19 83° W 17:18:42 10° SSW
Radarsat Rocket 4.0 17:08:54 10° N 17:14:51 63° WNW 17:20:43 10° SSW
CZ-4 R/B 3.1 17:11:41 10° NE 17:15:06 31° ESE 17:18:36 10° S
NOSS 3-2 (C) 4.2 17:07:00 10° NW 17:15:54 66° SW 17:23:36 10° SE
Cosmos 1300 Rocket 3.6 17:11:53 10° S 17:16:18 87° ESE 17:20:39 10° N
Meteor PRIRODA 4.2 17:13:39 10° NNE 17:17:00 54° ESE 17:20:23 10° S
Cosmos 405 Rocket 3.3 17:14:27 10° S 17:18:06 58° ESE 17:21:45 10° NNE
CZ-4B R/B 4.2 17:14:57 10° NE 17:18:32 39° ESE 17:22:19 10° S
COSMO-SKYMED 1 3.0 17:15:21 10° S 17:19:31 41° WSW 17:23:39 10° NW
USA 215 4.1 17:14:19 10° E 17:20:22 40° SSE 17:26:25 10° SW
ATLAS 5 CENTAUR R/B 3.6 17:15:56 10° NNW 17:23:20 60° ENE 17:30:24 10° SE
Okean 2 4.4 17:20:10 10° NW 17:23:24 23° WSW 17:26:42 10° SSW
SJ-6B 3.4 17:25:17 10° NNE 17:28:57 57° ESE 17:32:37 10° S
SL-08 R/B 3.7 17:24:04 10° SSE 17:29:07 77° ENE 17:34:03 10° N
CZ-2C R/B 4.2 17:27:09 10° NW 17:29:34 17° W 17:31:59 10° SW
Gbstr 26 Del rocket 4.4 17:23:02 10° WNW 17:31:00 87° SSW 17:37:59 10° ESE
